Location: Poughquag
(41.6090°N, 73.6820°W)
Time: 22:33:32
(UTC-04:00)

OTV 5 (USA 277) - Visible Passes

Search period start: 24 September 2017 00:00
Search period end: 04 October 2017 00:00
Orbit: 404 x 417 km, 43.0° (Epoch: 07 September)

Date Brightness Start Highest point End Pass type
(mag) Time Alt. Az. Time Alt. Az. Time Alt. Az.
24 Sep ? 05:23:32 36° WNW 05:24:42 66° N 05:27:58 10° E visible
25 Sep ? 04:34:54 33° ENE 04:34:54 33° ENE 04:36:53 10° ENE visible
25 Sep ? 06:07:43 10° WNW 06:11:02 83° NNE 06:14:19 10° E visible
26 Sep ? 05:19:03 44° WNW 05:19:57 72° N 05:23:14 10° E visible
27 Sep ? 04:30:30 26° E 04:30:30 26° E 04:32:08 10° E visible
27 Sep ? 06:03:16 12° W 06:06:11 60° SSW 06:09:25 10° ESE visible
28 Sep ? 05:14:47 66° W 05:15:09 80° SSW 05:18:26 10° ESE visible
29 Sep ? 04:26:22 18° E 04:26:22 18° E 04:27:23 10° E visible
29 Sep ? 05:59:09 16° W 06:01:13 30° SSW 06:04:08 10° SE visible
30 Sep ? 05:10:51 37° S 05:10:51 37° S 05:13:23 10° SE visible
01 Oct ? 05:55:28 13° SW 05:56:05 14° SW 05:57:52 10° S visible
02 Oct ? 05:07:25 12° SSE 05:07:25 12° SSE 05:07:43 10° SSE visible
